Location: Cicognara
(44.9500°N, 10.4667°E)
Time: 15:37:46
(UTC+00:00)

Cosmos 1441 Rocket - Pass Details

Date: 20 June 2021
Orbit: 495 x 539 km, 81.1° (Epoch: 02 August)

Event Time Altitude Azimuth Distance (km) Brightness Sun altitude
Exits shadow 21:55:26 34° 102° (ESE) 874 4.0 -18.9°
Maximum altitude 21:55:39 34° 94° (E) 868 4.1 -19.0°
Drops below altitude 10° 21:59:07 10° 29° (NNE) 1,743 6.4 -19.2°
Sets 22:01:22 0° 20° (NNE) 2,627 7.6 -19.3°
